User: anonymous   Login
Location: Tel Aviv
(32.0670°N, 34.7670°E)
Time: 02:15:00
(UTC+03:00)
Language:

EO-88 - Orbit

View from above orbital plane
View from above orbital plane
View from above satellite
View from above satellite

Ground track
Ground track

The orbit data is extracted from the following two-line orbital elements,

1 42017U 17008BX  23089.75257026  .00131778  00000-0  18012-2 0  9997
2 42017  97.2227 158.9476 0002917 262.5670  97.5254 15.56990112341180
Epoch (UTC): 30 March 2023 18:03:42
Eccentricity: 0.0002917
inclination: 97.2227°
perigee height: 394 km
apogee height: 398 km
right ascension of ascending node: 158.9476°
argument of perigee: 262.5670°
revolutions per day: 15.56990112
mean anomaly at epoch: 97.5254°
orbit number at epoch: 34118

The dashed part of the orbit path shows where the satellite is in the earth's shadow,  

DLR